Location: ?????????
(41.1143°N, 22.7905°E)
Time: 14:43:11
(UTC+00:00)

SKYMED 2 - Pass Details

Date: 13 December 2025
Orbit: 622 x 623 km, 97.9° (Epoch: 16 January)

Event Time Altitude Azimuth Distance (km) Brightness Sun altitude
Exits shadow 15:57:34 - 30° (NNE) 2,185 5.9 -10.5°
Reaches altitude 10° 15:58:04 10° 33° (NNE) 1,999 5.7 -10.6°
Maximum altitude 16:01:58 32° 97° (E) 1,076 4.3 -11.2°
Drops below altitude 10° 16:05:50 10° 160° (SSE) 1,984 6.2 -11.9°
Sets 16:08:12 0° 171° (S) 2,885 7.1 -12.3°
